19.05.2024;05:00;8
19.05.2024;04:00;8
19.05.2024;03:00;9
19.05.2024;02:00;10
19.05.2024;01:00;14
18.05.2024;24:00;12
18.05.2024;23:00;19
18.05.2024;22:00;14
18.05.2024;21:00;14
18.05.2024;20:00;14
18.05.2024;19:00;13
18.05.2024;18:00;13
18.05.2024;17:00;12
18.05.2024;16:00;14
18.05.2024;15:00;16
18.05.2024;14:00;17
18.05.2024;13:00;13
18.05.2024;12:00;9
18.05.2024;11:00;9
18.05.2024;10:00;10
18.05.2024;09:00;7
18.05.2024;08:00;5
18.05.2024;07:00;5
18.05.2024;06:00;6
18.05.2024;05:00;7
18.05.2024;04:00;8
18.05.2024;03:00;8
18.05.2024;02:00;8
18.05.2024;01:00;10
17.05.2024;24:00;14
17.05.2024;23:00;11
17.05.2024;22:00;18
17.05.2024;21:00;19
17.05.2024;20:00;18
17.05.2024;19:00;16
17.05.2024;18:00;13
17.05.2024;17:00;13
17.05.2024;16:00;18
17.05.2024;15:00;17
17.05.2024;14:00;30
17.05.2024;13:00;12
17.05.2024;12:00;8
17.05.2024;11:00;7
17.05.2024;10:00;7
17.05.2024;09:00;5
17.05.2024;08:00;5
17.05.2024;07:00;3
17.05.2024;06:00;3
17.05.2024;05:00;4
17.05.2024;04:00;6
17.05.2024;03:00;13
17.05.2024;02:00;11
17.05.2024;01:00;9
16.05.2024;24:00;14
16.05.2024;23:00;15
16.05.2024;22:00;12
16.05.2024;21:00;12
16.05.2024;20:00;10
16.05.2024;19:00;9
16.05.2024;18:00;8
16.05.2024;17:00;9
16.05.2024;16:00;10
16.05.2024;15:00;11
16.05.2024;14:00;19
16.05.2024;13:00;20
16.05.2024;12:00;23
16.05.2024;11:00;21
16.05.2024;10:00;18
16.05.2024;09:00;17
16.05.2024;08:00;14
16.05.2024;07:00;10
16.05.2024;06:00;13
16.05.2024;05:00;21
16.05.2024;04:00;13
16.05.2024;03:00;7
16.05.2024;02:00;6
16.05.2024;01:00;7
15.05.2024;24:00;7
15.05.2024;23:00;7
15.05.2024;22:00;8
15.05.2024;21:00;14
15.05.2024;20:00;20
15.05.2024;19:00;17
15.05.2024;18:00;19
15.05.2024;17:00;18
15.05.2024;16:00;23
15.05.2024;15:00;18
15.05.2024;14:00;19
15.05.2024;13:00;24
15.05.2024;12:00;24
15.05.2024;11:00;27
15.05.2024;10:00;28
15.05.2024;09:00;23
15.05.2024;08:00;14
15.05.2024;07:00;13
15.05.2024;06:00;12
15.05.2024;05:00;9
15.05.2024;04:00;9
15.05.2024;03:00;9
15.05.2024;02:00;9
15.05.2024;01:00;10
14.05.2024;24:00;11
14.05.2024;23:00;12
14.05.2024;22:00;13
14.05.2024;21:00;14
14.05.2024;20:00;14
14.05.2024;19:00;15
14.05.2024;18:00;15
14.05.2024;17:00;15
14.05.2024;16:00;16
14.05.2024;15:00;16
14.05.2024;14:00;19
14.05.2024;13:00;19
14.05.2024;12:00;16
14.05.2024;11:00;17
14.05.2024;10:00;20
14.05.2024;09:00;19
14.05.2024;08:00;15
14.05.2024;07:00;15
14.05.2024;06:00;15
14.05.2024;05:00;15
14.05.2024;04:00;12
14.05.2024;03:00;13
14.05.2024;02:00;16
14.05.2024;01:00;19
